FW5697 Weather Reports


Display with metric or nautical units.
time (UTC)temp
F
wind
direction
speed
MPH
gust
MPH
rain 1hr
in
rain 24hr
in
rain mn
in
humidity
%
barometer
mb
20260831193104 90 0 0.0 4.0 0.00 0.00 0.00 58 1018.8
20260831191532 91 44 1.0 3.0 0.00 0.00 0.00 56 1019.1
20260831190040 90 0 0.0 4.0 0.00 0.00 0.00 61 1019.5
20260831184535 90 17 0.0 4.0 0.00 0.00 0.00 58 1019.6
20260831183036 88 0 0.0 3.0 0.00 0.00 0.00 60 1019.8
20260831181546 88 26 1.0 3.0 0.00 0.00 0.00 62 1020.0
20260831180037 88 114 0.0 5.0 0.00 0.00 0.00 67 1020.1
20260831174536 88 60 1.0 5.0 0.00 0.00 0.00 64 1020.2
20260831173035 87 36 1.0 6.0 0.00 0.00 0.00 65 1020.5
20260831171535 86 0 1.0 4.0 0.00 0.00 0.00 68 1020.6
20260831170039 85 32 1.0 5.0 0.00 0.00 0.00 71 1020.8
20260831164545 85 19 0.0 5.0 0.00 0.00 0.00 71 1020.9
20260831163034 85 0 0.0 4.0 0.00 0.00 0.00 71 1021.0
20260831161554 84 0 0.0 4.0 0.00 0.00 0.00 74 1021.2
20260831160045 83 0 0.0 1.0 0.00 0.00 0.00 78 1021.2
20260831154610 83 38 1.0 3.0 0.00 0.00 0.00 77 1021.4
20260831153034 82 0 1.0 6.0 0.00 0.00 0.00 78 1021.4
20260831151533 81 0 0.0 2.0 0.00 0.00 0.00 81 1021.4
20260831150040 80 0 1.0 4.0 0.00 0.00 0.00 82 1021.1
20260831144535 79 36 1.0 3.0 0.00 0.00 0.00 85 1021.0
20260831143037 78 0 0.0 2.0 0.00 0.00 0.00 88 1020.9
20260831141535 77 0 0.0 3.0 0.00 0.00 0.00 91 1021.0
20260831140034 76 0 0.0 2.0 0.00 0.00 0.00 93 1021.1
20260831134538 75 0 0.0 0.0 0.00 0.00 0.00 95 1021.2
20260831133037 74 0 0.0 0.0 0.00 0.00 0.00 97 1021.3
20260831131553 73 0 0.0 0.0 0.00 0.00 0.00 97 1021.3
20260831130043 72 0 0.0 0.0 0.00 0.00 0.00 98 1021.3
20260831124540 72 0 0.0 0.0 0.00 0.00 0.00 97 1021.1
20260831123042 71 0 0.0 0.0 0.00 0.00 0.00 97 1021.2
20260831121535 70 0 0.0 0.0 0.00 0.00 0.00 98 1021.1
20260831120037 70 0 0.0 0.0 0.00 0.00 0.00 97 1021.0
20260831114535 70 0 0.0 0.0 0.00 0.00 0.00 97 1020.9
20260831113042 70 0 0.0 0.0 0.00 0.00 0.00 97 1020.6
20260831111542 70 0 0.0 0.0 0.00 0.00 0.00 96 1020.3
20260831110035 70 0 0.0 0.0 0.00 0.00 0.00 96 1020.3
20260831104537 70 0 0.0 0.0 0.00 0.00 0.00 96 1020.4
20260831103037 70 0 0.0 0.0 0.00 0.00 0.00 96 1020.2
20260831101537 70 0 0.0 0.0 0.00 0.00 0.00 97 1020.1
20260831100046 70 0 0.0 0.0 0.00 0.00 0.00 96 1020.0
20260831094543 70 0 0.0 0.0 0.00 0.00 0.00 96 1020.0
20260831093049 70 0 0.0 0.0 0.00 0.00 0.00 96 1019.9
20260831091533 70 0 0.0 0.0 0.00 0.00 0.00 96 1019.8
20260831090037 70 0 0.0 0.0 0.00 0.00 0.00 96 1019.8
20260831084533 70 0 0.0 0.0 0.00 0.00 0.00 96 1019.7
20260831083052 71 0 0.0 0.0 0.00 0.00 0.00 96 1019.5
20260831081534 71 0 0.0 0.0 0.00 0.00 0.00 96 1019.4
20260831074533 71 0 0.0 0.0 0.00 0.00 0.00 95 1019.5
20260831073037 71 0 0.0 0.0 0.00 0.00 0.00 95 1019.3
20260831071543 71 0 0.0 0.0 0.00 0.00 0.00 95 1019.1
20260831070037 71 0 0.0 0.0 0.00 0.00 0.00 95 1019.2
20260831064532 72 0 0.0 0.0 0.00 0.00 0.00 95 1019.2
20260831063034 72 0 0.0 0.0 0.00 0.00 0.00 95 1019.2
20260831061536 72 0 0.0 0.0 0.00 0.00 0.00 95 1019.4
20260831060038 72 0 0.0 0.0 0.00 0.00 0.00 95 1019.4
20260831054533 72 0 0.0 0.0 0.00 0.00 0.00 94 1019.3
20260831053053 72 0 0.0 0.0 0.00 0.00 0.00 94 1019.3
20260831051537 72 0 0.0 0.0 0.00 0.00 0.00 94 1019.4
20260831050039 73 0 0.0 0.0 0.00 0.00 0.00 94 1019.4
20260831044626 73 0 0.0 2.0 0.00 0.00 0.00 94 1019.3
20260831043040 73 0 0.0 0.0 0.00 0.00 0.00 93 1019.4
20260831041535 73 0 0.0 0.0 0.00 0.00 0.00 93 1019.5
20260831040035 74 0 0.0 0.0 0.00 0.00 0.00 92 1019.7
20260831034534 74 0 0.0 1.0 0.00 0.00 0.00 92 1019.5
20260831033052 74 0 0.0 0.0 0.00 0.00 0.00 91 1019.7
20260831031537 74 0 0.0 0.0 0.00 0.00 0.00 91 1019.5
20260831030035 75 0 0.0 0.0 0.00 0.00 0.00 90 1019.6
20260831024535 75 0 0.0 0.0 0.00 0.00 0.00 89 1019.6
20260831023035 75 0 0.0 0.0 0.00 0.00 0.00 89 1019.6
20260831021535 76 0 0.0 0.0 0.00 0.00 0.00 87 1019.6
20260831020037 76 0 0.0 0.0 0.00 0.00 0.00 85 1019.6
20260831014537 77 0 0.0 0.0 0.00 0.00 0.00 84 1019.6
20260831013037 77 0 0.0 0.0 0.00 0.00 0.00 83 1019.4
20260831011535 78 0 0.0 0.0 0.00 0.00 0.00 81 1019.1
20260831010054 79 0 0.0 1.0 0.00 0.00 0.00 80 1019.1
20260831004534 80 0 0.0 0.0 0.00 0.00 0.00 80 1019.1
20260831003036 80 0 0.0 0.0 0.00 0.00 0.00 79 1018.8
20260831001538 81 0 0.0 0.0 0.00 0.00 0.00 77 1018.7
20260831000033 83 0 0.0 0.0 0.00 0.00 0.00 76 1018.5
20260830234538 84 0 0.0 0.0 0.00 0.00 0.00 72 1018.4
20260830233040 85 0 0.0 0.0 0.00 0.00 0.00 69 1018.3
20260830231535 86 0 0.0 0.0 0.00 0.00 0.00 67 1018.3
20260830230035 88 0 0.0 1.0 0.00 0.00 0.00 65 1018.2
20260830224534 89 0 0.0 0.0 0.00 0.00 0.00 62 1018.1
20260830223036 91 0 0.0 0.0 0.00 0.00 0.00 60 1018.1
20260830221533 90 0 0.0 2.0 0.00 0.00 0.00 62 1018.1
20260830220033 90 0 0.0 1.0 0.00 0.00 0.00 59 1018.2
20260830214536 91 0 0.0 1.0 0.00 0.00 0.00 58 1018.4
20260830213048 90 0 0.0 2.0 0.00 0.00 0.00 61 1018.4
20260830211535 89 0 0.0 1.0 0.00 0.00 0.00 59 1018.6
20260830210039 89 0 0.0 3.0 0.00 0.00 0.00 62 1018.7
20260830204540 89 0 0.0 3.0 0.00 0.00 0.00 61 1018.6
20260830203035 89 0 1.0 3.0 0.00 0.00 0.00 62 1018.8
20260830201534 88 25 0.0 3.0 0.00 0.00 0.00 63 1018.9
20260830200035 88 0 0.0 2.0 0.00 0.00 0.00 66 1019.2
20260830194536 88 0 0.0 3.0 0.00 0.00 0.00 65 1019.4